Weather History for KUIL - December, 2010

Change the Weather History Date:

Monday, December 6, 2010

  Actual Average Record
Temperature  
Mean Temperature 47 °F 41 °F  
Max Temperature 54 °F 47 °F 55 °F (1974)
Min Temperature 40 °F 35 °F 20 °F (1972)
Degree Days  
Heating Degree Days 18 24  
Month to date heating degree days 144  
Since 1 July heating degree days 1858  
Cooling Degree Days 0 0  
Month to date cooling degree days 0  
Year to date cooling degree days 19  
Moisture  
Dew Point 44 °F    
Average Humidity 85    
Maximum Humidity 96    
Minimum Humidity 75    
Precipitation  
Precipitation 0.25 in 0.44 in 2.47 in (1970)
Month to date precipitation 2.78  
Year to date precipitation 89.33  
Sea Level Pressure  
Sea Level Pressure 30.00 in    
Wind  
Wind Speed 8 mph (ESE)    
Max Wind Speed 18 mph    
Max Gust Speed 29 mph    
Visibility 9 miles    
Events Rain    
T = Trace of Precipitation, MM = Missing Value Source: NWS Daily Summary

Daily Weather History Graph

Daily Weather History Graph

Search for Another Location

Airport or City:

Trip Planner

Search our weather history database for the weather conditions in past years. The results will help you decide how hot, cold, wet, or windy it might be!

Date:

Astronomy

Dec. 06, 2010 Rise Set
Actual Time 7:52 AM PST 4:25 PM PST
Civil Twilight 7:16 AM PST 5:01 PM PST
Nautical Twilight 6:37 AM PST 5:40 PM PST
Astronomical Twilight 6:00 AM PST 6:18 PM PST
Moon 9:00 AM PST 5:23 PM PST
Length of Visible Light 9h 44m
Length of Day
8h 33m
New Moon, 1% of the Moon is Illuminated
Dec 6
New Moon
Dec 13
First Quarter
Dec 21
Full
Dec 27
Last Quarter
Jan 4
New

Hourly Weather History & Observations

Time (PST) Temp. Windchill Dew Point Humidity Pressure Visibility Wind Dir Wind Speed Gust Speed Precip Events Conditions
12:53 AM 41.0 °F 35.2 °F 36.0 °F 82% 29.87 in 10.0 mi NE 9.2 mph - N/A   Clear
1:53 AM 41.0 °F 36.4 °F 36.0 °F 82% 29.87 in 10.0 mi ENE 6.9 mph - N/A   Clear
2:53 AM 39.9 °F 35.1 °F 36.0 °F 86% 29.88 in 10.0 mi NE 6.9 mph - N/A   Clear
3:53 AM 42.1 °F 37.1 °F 37.0 °F 82% 29.87 in 10.0 mi ENE 8.1 mph - N/A   Overcast
4:53 AM 42.1 °F 37.7 °F 37.0 °F 82% 29.88 in 10.0 mi ENE 6.9 mph - N/A   Scattered Clouds
5:53 AM 42.1 °F 39.2 °F 37.0 °F 82% 29.90 in 10.0 mi East 4.6 mph - N/A   Overcast
6:53 AM 42.1 °F 38.4 °F 37.0 °F 82% 29.92 in 10.0 mi East 5.8 mph - N/A   Overcast
7:53 AM 41.0 °F 37.1 °F 37.9 °F 89% 29.94 in 10.0 mi East 5.8 mph - N/A   Overcast
8:53 AM 45.0 °F 42.6 °F 39.9 °F 82% 29.96 in 10.0 mi East 4.6 mph - N/A   Overcast
9:53 AM 48.0 °F - 43.0 °F 83% 29.99 in 10.0 mi Calm Calm - 0.00 in Rain Light Rain
10:13 AM 48.2 °F - 42.8 °F 82% 29.99 in 10.0 mi Variable 4.6 mph - 0.01 in Rain Light Rain
10:53 AM 48.9 °F - - N/A% 30.01 in 8.0 mi SE 5.8 mph - 0.02 in Rain Light Rain
11:53 AM 50.0 °F - - N/A% 30.01 in 10.0 mi SE 5.8 mph - 0.01 in   Overcast
12:53 PM 51.1 °F - 46.9 °F 86% 30.03 in 10.0 mi SSE 6.9 mph 17.3 mph N/A   Overcast
1:32 PM 51.8 °F - 46.4 °F 82% 30.02 in 10.0 mi SE 8.1 mph - N/A   Overcast
1:53 PM 54.0 °F - 46.9 °F 77% 30.03 in 10.0 mi SE 9.2 mph - N/A   Overcast
2:53 PM 54.0 °F - 46.0 °F 75% 30.03 in 10.0 mi SE 11.5 mph 17.3 mph N/A   Overcast
3:13 PM 53.6 °F - 46.4 °F 77% 30.03 in 10.0 mi SSE 10.4 mph 18.4 mph N/A   Overcast
3:53 PM 53.1 °F - 46.0 °F 77% 30.05 in 10.0 mi SE 11.5 mph 19.6 mph N/A   Overcast
4:12 PM 53.6 °F - 50.0 °F 88% 30.05 in 10.0 mi SE 10.4 mph 19.6 mph N/A   Overcast
4:53 PM 53.1 °F - 46.0 °F 77% 30.05 in 10.0 mi SE 9.2 mph 17.3 mph N/A   Overcast
5:53 PM 53.1 °F - 46.0 °F 77% 30.07 in 10.0 mi SE 11.5 mph 19.6 mph N/A   Overcast
6:51 PM 53.6 °F - 46.4 °F 77% 30.07 in 10.0 mi SE 11.5 mph 23.0 mph N/A   Overcast
6:53 PM 53.1 °F - 46.0 °F 77% 30.08 in 10.0 mi SE 13.8 mph 23.0 mph N/A   Overcast
7:53 PM 51.1 °F - 48.0 °F 89% 30.08 in 7.0 mi SE 13.8 mph 21.9 mph 0.02 in Rain Light Rain
8:37 PM 50.0 °F - 48.2 °F 94% 30.07 in 5.0 mi SE 9.2 mph 18.4 mph 0.03 in Rain Light Rain
8:53 PM 50.0 °F - 48.9 °F 96% 30.08 in 6.0 mi SE 8.1 mph 18.4 mph 0.03 in Rain Light Rain
9:49 PM 50.0 °F - 48.2 °F 94% 30.06 in 2.5 mi SE 11.5 mph 20.7 mph 0.04 in Rain Light Rain
9:53 PM 50.0 °F - 48.9 °F 96% 30.06 in 2.5 mi SSE 12.7 mph 20.7 mph 0.05 in Rain Light Rain
10:02 PM 50.0 °F - 48.2 °F 94% 30.06 in 4.0 mi SSE 10.4 mph 26.5 mph 0.00 in Rain Light Rain
10:53 PM 50.0 °F - 48.9 °F 96% 30.07 in 10.0 mi SSE 8.1 mph 20.7 mph 0.05 in Rain Light Rain
11:53 PM 51.1 °F - 50.0 °F 96% 30.07 in 4.0 mi SSE 13.8 mph 24.2 mph 0.06 in Rain Light Rain